Hourly Data Report for November 04, 2021

MOUNT FOREST (AUT)
ONTARIO
Current Station Operator: ECCC - MSC

43°59'00.000" N
80°45'00.000" W
414.50 m
6145504
71631
WLS

Download Data

Hourly Data (November 2021)
Hourly Data Report for November 4, 2021
TIME
LST
Temp Definition
°C
Dew Point Definition
°C
Rel Hum Definition
%
Precip. Amount Definition
mm

Wind Dir Definition
10's deg

Wind Spd Definition
km/h
Visibility Definition
km
Stn Press Definition
kPa
Hmdx Definition


Wind Chill Definition


Weather Definition


00:00 -0.5 -1.1 95 0.0 20 5   97.59   -2 LegendNANA
01:00 -0.3 -0.8 96 0.0 22 4   97.59   -2 LegendNANA
02:00 -0.3 -0.8 96 0.0 22 5   97.59   -2 LegendNANA
03:00 -0.1 -0.7 96 0.0 21 5   97.56   -2 LegendNANA
04:00 0.0 -0.5 97 0.3 26 4   97.55   -1 LegendNANA
05:00 -0.2 -0.8 96 0.2 28 2   97.53   -1 LegendNANA
06:00 -0.6 -1.0 97 0.0 18 6   97.50   -3 LegendNANA
07:00 -0.9 -1.3 97 0.0 18 5   97.52   -3 LegendNANA
08:00 -0.3 -1.2 94 0.0 19 8   97.56   -3 LegendNANA
09:00 0.4 -1.0 91 0.0 32 3   97.59     LegendNANA
10:00 0.7 -0.8 90 0.0 22 7   97.57     LegendNANA
11:00 0.9 -0.3 92 0.0 22 15   97.59     LegendNANA
12:00 1.7 -0.3 87 0.0 22 10   97.55     LegendNANA
13:00 3.5 -2.9 63 0.0 24 4   97.49     LegendNANA
14:00 4.0 -0.9 70 0.0 22 7   97.45     LegendNANA
15:00 3.2 -1.3 72 0.0 21 6   97.44     LegendNANA
16:00 3.4 -1.2 72 0.0 28 7   97.43     LegendNANA
17:00 2.7 -1.3 75 0.0 32 5   97.45     LegendNANA
18:00 0.8 -0.9 88 0.0 36 5   97.48     LegendNANA
19:00 0.1 -0.6 95 0.0   0   97.51     LegendNANA
20:00 -0.6 -1.2 96 0.0 21 4   97.52   -2 LegendNANA
21:00 -1.1 -1.7 96 0.0 22 4   97.53   -2 LegendNANA
22:00 -0.8 -1.2 97 0.0 17 2   97.54   -1 LegendNANA
23:00 -2.0 -2.4 97 0.0 12 1   97.54   -2 LegendNANA

Notes on Data Quality.

Legend

  • E = Estimated
  • M = Missing
  • NA = Not Available*
  • [empty] = Indicates an unobserved value
Date modified: